Каменское

Украина / Днепропетровская область     48°31′00″N   34°36′48″E
темп.,
°C
ветер,
м/с
пор.,
м/с
влажн.,
%
обл.,
%
осадки,
мм/ч
давл.,
гПа
погр.,
м
8 мая, сб
сб800:00+15ю7146095 0.0 1012532
03:00+13ююз61473100 0.1 1011549
06:00+13ю71572100 0.1 1009565
09:00+13ю81479100 0.3 1008731
12:00+13ююз71388100 2.8 1008977
15:00+12зсз6989100 8.8 1009626
18:00+9сз71282100 0.2 1011772
21:00+9сз71277100 0.2 1013830
9 мая, вс
вс900:00+6ссз71386100 0.0 1015720
03:00+5ссз6138288 0.0 1017636
06:00+4ссз613851 0.0 1018604
09:00+8ссз812605 0.0 10211283
12:00+12ссз8114511 0.0 10222017
15:00+13ссз81140100 0.0 10222617
18:00+13сз7104874 0.0 10232319
21:00+7сз35652 0.1 1026111
10 мая, пн
пн1000:00+6ссз36710 0.0 102797
03:00+5ссз36765 0.0 1028107
06:00+4ссз37770 0.0 1028154
09:00+10с57550 0.0 1028721
12:00+14с67415 0.0 10272063
15:00+15с783924 0.0 10262287
18:00+14с794896 0.0 10241807
21:00+10с51164100 0.0 1024318
11 мая, вт
вт1100:00+9ссз7146976 0.0 1022455
03:00+9ссз71369100 0.0 1021655
06:00+8с71377100 0.2 1019621
09:00+10с71273100 0.2 1019675
12:00+11ссв61079100 0.0 1018922
15:00+14св7106592 0.2 10171613
18:00+12св696217 0.1 10181265
21:00+9св61177100 0.3 1017856
12 мая, ср
ср1200:00+9св81382100 0.3 10151208
03:00+7всв6108147 0.5 1015798
06:00+7всв5890100 0.3 10141078
09:00+8вюв688498 1.2 1014852
12:00+11вюв477498 0.9 10141084
15:00+14ююв8116196 2.3 10131663
18:00+12юв587517 1.1 1014698
21:00+9юв489115 1.6 1014137